Hourly Data Report for October 04, 2013

All times are specified in Local Standard Time (LST). Add 1 hour to adjust for Daylight Saving Time where and when it is observed.

KITCHENER/WATERLOO
ONTARIO

43°27'39.000" N
80°22'43.000" W
321.60 m
6144239
71368
YKF

Download Data

Hourly Data (October 2013)
Hourly Data Report for October 4, 2013
Temp Definition
°C
Dew Point Temp Definition
°C
Rel Hum Definition
%
Wind Dir Definition
10's deg

Wind Spd Definition
km/h
Visibility Definition
km
Stn Press Definition
kPa
Hmdx Definition


Wind Chill Definition


Weather Definition


TIME
00:00 Legend Double Dagger 13.2 11.8 91 35 5 9.7 97.83     LegendNANA
01:00 Legend Double Dagger 13.6 12.7 94 6 8 16.1 97.79     LegendNANA
02:00 Legend Double Dagger 14.0 13.4 96 LegendMM 4 6.4 97.78     LegendNANA
03:00 Legend Double Dagger 14.0 13.5 97 12 5 3.2 97.76     LegendNANA
04:00 Legend Double Dagger 14.5 14.0 97 15 4 2.4 97.76     LegendNANA
05:00 Legend Double Dagger 14.7 14.2 97 7 5 1.6 97.74     LegendNANA
06:00 Legend Double Dagger 15.5 14.9 96 14 5 8.1 97.75     LegendNANA
07:00 Legend Double Dagger 15.6 15.0 96 20 5 6.4 97.81     LegendNANA
08:00 Legend Double Dagger 16.8 16.2 96 15 5 4.8 97.83     LegendNANA
09:00 Legend Double Dagger 17.5 16.9 96 21 5 2.4 97.84     LegendNANA
10:00 Legend Double Dagger 18.4 17.6 95 21 8 2.8 97.82     LegendNANA
11:00 Legend Double Dagger 19.0 17.8 93 18 9 4.0 97.85     LegendNANA
12:00 Legend Double Dagger 20.1 18.3 89 18 9 8.1 97.85 26   LegendNANA
13:00 Legend Double Dagger 21.0 18.8 87 18 11 9.7 97.81 28   LegendNANA
14:00 Legend Double Dagger 17.7 16.8 94 10 17 2.4 97.82     LegendNANA
15:00 Legend Double Dagger 17.8 16.6 92 10 15 4.8 97.81     LegendNANA
16:00 Legend Double Dagger 16.9 15.9 94 8 11 4.8 97.86     LegendNANA
17:00 Legend Double Dagger 15.9 15.4 97 9 9 0.6 97.88     LegendNANA
18:00 Legend Double Dagger 15.4 15.0 97 8 8 0.2 97.94     LegendNANA
19:00 Legend Double Dagger 14.9 14.6 98 9 8 0.4 97.97     LegendNANA
20:00 Legend Double Dagger 14.3 14.0 98 10 9 0.6 98.00     LegendNANA
21:00 Legend Double Dagger 14.0 13.5 97 10 11 2.4 98.03     LegendNANA
22:00 Legend Double Dagger 14.0 13.5 97 10 8 2.4 98.07     LegendNANA
23:00 Legend Double Dagger 14.0 13.5 97 9 11 2.4 98.00     LegendNANA

Notes on Data Quality.

Legend

  • E = Estimated
  • M = Missing
  • NA = Not Available
  • ‡ = Partner data that is not subject to review by the National Climate Archives
Date modified: